Regional Weather Roundup
Issued by NWS

Home | Current Version | Previous Version | Graphics & Text | Print | Product List | Glossary On
Versions: 1 2 3 4 5 6 7 8 9 10 11 12 13 14 15 16 17 18 19 20 21 22 23 24 25 26 27 28 29 30 31 32 33 34 35 36 37 38 39 40 41 42 43 44 45 46 47 48 49 50
000
ASUS43 KIND 222309
RWRIN

WEATHER ROUNDUP FOR INDIANA
NATIONAL WEATHER SERVICE INDIANAPOLIS IN
700 PM EDT FRI JUL 22 2016

NOTE: "FAIR" INDICATES FEW OR NO CLOUDS BELOW 12,000 FEET WITH NO
SIGNIFICANT WEATHER AND/OR OBSTRUCTIONS TO VISIBILITY.

* - STATION DOES NOT REPORT WEATHER SUCH AS PRECIPITATION OR FOG.

+ - STATION NOT QUALITY CONTROLLED BY THE NATIONAL WEATHER SERVICE.
    USE DATA WITH CAUTION...ESPECIALLY DEWPOINT AND RELATIVE
    HUMIDITY OBSERVATIONS.

INZ001>003-010>013-019-020-230000-
NORTHWEST INDIANA

CITY           SKY/WX    TMP DP  RH WIND       PRES   REMARKS
GARY /AIRPORT/ MOSUNNY   90  81  74 W7        29.97F HX 108
KNOX *+        MOSUNNY   82  63  51 W3        29.97F
LA PORTE +     SUNNY     88  71  58 CALM      29.99S
MICHIGAN CITY+ SUNNY     86  70  58 NW5       29.98F
MONTICELLO +   SUNNY     84  69  61 W3        29.98F
RENSSELAER +   MOSUNNY   82  75  78 CALM      29.99S
VALPARAISO     MOSUNNY   88  72  58 NW3       29.98F

$$

LMZ046-743>745-230000-
SOUTHERN LAKE MICHIGAN

STATION/POSITION TIME  TEMP    WIND        PRES    WAVE
                       AIR SEA DIR/SP/G            HT
                 (UTC) (F)     (DEG/KT/KT) (MB)    (FT)
BURNS HARBOR     2200   87        CALM     1015.6F
MICHIGAN CITY    2200   80      20/  2/  3   N/A
5NW MICH CITY    2300   81 79   40/  4/  4   N/A     1

$$

INZ004-005-014>016-021>024-230000-
NORTH CENTRAL INDIANA

CITY           SKY/WX    TMP DP  RH WIND       PRES   REMARKS
ELKHART        SUNNY     86  73  66 W7        29.98F
GOSHEN         SUNNY     88  67  49 SW7       29.97F
LOGANSPORT +   MOSUNNY   84  72  65 W5        29.99F
PERU/GRISSOM   MOSUNNY   87  73  62 W9        29.97F
ROCHESTER +    SUNNY     88  73  62 NW6       29.98F HX  96
SOUTH BEND     SUNNY     85  69  58 W8        29.99S
WARSAW +       SUNNY     86  70  58 NW5       29.98F

$$

INZ006>009-017-018-025>027-230000-
NORTHEAST INDIANA

CITY           SKY/WX    TMP DP  RH WIND       PRES   REMARKS
ANGOLA *+        N/A     88  82  84 W7        29.98F HX 108
AUBURN +       SUNNY     88  68  51 W7        29.97F
FORT WAYNE     PTSUNNY   87  71  58 W7        29.97F
HUNTINGTON +   SUNNY    N/A N/A N/A W8        29.97F

$$

INZ028-029-035-036-043>045-051>053-230000-
WEST CENTRAL INDIANA

CITY           SKY/WX    TMP DP  RH WIND       PRES   REMARKS
CRAWFORDSVL +  MOSUNNY   83  73  72 W3        29.99F
GREENCASTLE +  SUNNY     84  73  70 CALM      30.00F
LAFAYETTE      MOSUNNY   86  73  65 VRB3      29.98F
TERRE HAUTE    MOSUNNY   88  70  55 E3        29.98F

$$

INZ030>032-037>040-046>048-054>057-064-065-230000-
CENTRAL INDIANA

CITY           SKY/WX    TMP DP  RH WIND       PRES   REMARKS
FRANKFORT +    SUNNY     88  71  57 NW3       30.01F
INDIANAPOLIS   MOSUNNY   88  68  51 NW8       29.99F
-EAGLE CREEK   SUNNY     88  69  53 NW8       29.98F
KOKOMO *+      SUNNY     88  72  58 W9        29.98F
MARION +       SUNNY     85  69  57 CALM      29.99F HAZE
MT COMFORT *+  MOSUNNY   86  70  58 CALM      29.99F
SHELBYVILLE    CLOUDY    87  76  69 S9        29.97F HX  97
ZIONSVILLE +   SUNNY     82  73  73 NW3       30.00F

$$

INZ033-034-041-042-049-050-058-059-230000-
EAST CENTRAL INDIANA

CITY           SKY/WX    TMP DP  RH WIND       PRES   REMARKS
MUNCIE         SUNNY     88  73  61 NW6       29.98F HX  95

$$

INZ060-061-067>069-081>083-085>088-230000-
SOUTHWEST INDIANA

CITY           SKY/WX    TMP DP  RH WIND       PRES   REMARKS
EVANSVILLE     CLOUDY    85  74  69 SE3       30.00S
HUNTINGBURG *+ CLOUDY    84  73  70 CALM      30.00F
WASHINGTON +   MOSUNNY   83  78  85 MISG      29.99F

$$

INZ062-063-066-070>080-084-089>092-230000-
SOUTH CENTRAL AND SOUTHEAST INDIANA

CITY           SKY/WX    TMP DP  RH WIND       PRES   REMARKS
BLOOMINGTON    CLOUDY    86  73  65 NW3       30.00F
MADISON *+     SUNNY     86  72  62 SW5       30.03S
SEYMOUR +      SUNNY     88  75  66 CALM      29.99  HX  97

$$





USA.gov is the U.S. government's official web portal to all federal, state and local government web resources and services.